Stations météo

réclame
Mon MeteoGroup
Twenthe, Pays-Bas (6290): Température de l'air & dewpoint: 14.01.2018 00:00:00 - 20.01.2018 00:00:00 (CET)Twenthe, Pays-Bas (6290): Température de l'air 5cm: 14.01.2018 00:00:00 - 20.01.2018 00:00:00 (CET)Twenthe, Pays-Bas (6290): Vitesse du vent & gusts: 14.01.2018 00:00:00 - 20.01.2018 00:00:00 (CET)Twenthe, Pays-Bas (6290): Direction du vent: 14.01.2018 00:00:00 - 20.01.2018 00:00:00 (CET)Twenthe, Pays-Bas (6290): reduced air pressure: 14.01.2018 00:00:00 - 20.01.2018 00:00:00 (CET)Twenthe, Pays-Bas (6290): visibility: 14.01.2018 00:00:00 - 20.01.2018 00:00:00 (CET)Twenthe, Pays-Bas (6290): Quantités de précipitations: 14.01.2018 00:00:00 - 20.01.2018 00:00:00 (CET)
Date & Time tt [°C] td [°C] tt 5cm [°C] ff [km/h] ff [knt] fx [km/h] fx [knt] dd ppp [hPa] vv [km] rr [mm]
20.01.2018 00:00:00 1,9 0,7 1,3 15 8 - - SSW 1007,9 7 -
19.01.2018 23:00:00 1,9 0,5 1,4 18 10 25 14 SW 1008,0 14 0,0
19.01.2018 22:00:00 2,1 0,4 1,2 14 8 - - SSW 1007,7 18 0,0
19.01.2018 21:00:00 1,9 0,3 0,9 14 8 25 14 SSW 1007,6 19 0,0
19.01.2018 20:00:00 2,0 0,4 1,0 14 8 25 14 SSW 1007,5 24 0,0
19.01.2018 19:00:00 2,3 0,2 1,5 14 8 - - SW 1007,6 47 0,0
19.01.2018 18:00:00 2,2 0,1 1,4 18 10 32 18 SW 1007,5 48 0,0
19.01.2018 17:00:00 2,8 0,9 1,9 18 10 25 14 SSW 1007,4 43 0,0
19.01.2018 16:00:00 3,9 1,8 3,5 11 6 - - SSW 1007,4 26 0,0
19.01.2018 15:00:00 4,7 1,7 4,4 14 8 32 18 SW 1007,3 34 0,0
19.01.2018 14:00:00 4,7 1,6 4,5 25 14 36 19 WSW 1007,1 38 0,0
19.01.2018 13:00:00 5,3 2,5 4,8 22 12 - - WSW 1007,2 30 0,0
19.01.2018 12:00:00 4,1 2,0 4,0 18 10 29 16 WSW 1007,4 22 0,0
19.01.2018 11:00:00 3,7 2,3 3,4 14 8 25 14 WSW 1007,1 21 0,0
19.01.2018 10:00:00 2,8 2,0 2,5 14 8 - - SW 1006,4 15 0,1
19.01.2018 09:00:00 2,4 1,6 2,0 18 10 25 14 SW 1005,8 13 0,1
19.01.2018 08:00:00 2,2 1,7 1,8 11 6 22 12 SW 1005,0 8 0,0
19.01.2018 07:00:00 2,0 1,5 1,6 14 8 - - SW 1004,2 6 0,0
19.01.2018 06:00:00 1,5 1,1 1,1 14 8 22 12 SW 1003,8 6 0,0
19.01.2018 05:00:00 1,6 1,0 1,2 14 8 22 12 SW 1003,1 10 0,0
19.01.2018 04:00:00 1,7 1,1 1,1 14 8 - - SW 1002,7 7 0,0
19.01.2018 03:00:00 1,7 1,1 0,8 11 6 14 8 SSW 1002,6 8 0,0
19.01.2018 02:00:00 0,7 0,2 -0,8 4 2 11 6 S 1002,2 9 0,0
19.01.2018 01:00:00 0,7 0,1 -0,9 11 6 - - SSW 1001,9 9 0,0
19.01.2018 00:00:00 0,4 -0,3 -1,0 7 4 14 8 SSW 1001,8 12 0,0
18.01.2018 23:00:00 1,1 0,1 0,1 11 6 22 12 SW 1001,6 30 0,0
18.01.2018 22:00:00 1,6 0,5 0,6 14 8 - - SW 1001,3 32 0,0
18.01.2018 21:00:00 1,5 0,6 0,7 11 6 22 12 SW 1001,0 24 0,0
18.01.2018 20:00:00 2,4 1,3 1,3 18 10 29 16 SW 1000,6 21 0,0
18.01.2018 19:00:00 3,0 1,4 2,2 22 12 - - WSW 1000,2 48 0,0
18.01.2018 18:00:00 3,8 1,9 2,9 22 12 36 19 WSW 999,9 47 0,0
18.01.2018 17:00:00 4,2 2,0 3,6 25 14 50 27 W 998,9 18 0,1
18.01.2018 16:00:00 4,9 1,5 4,4 29 16 - - W 997,9 50 0,0
18.01.2018 15:00:00 5,3 1,8 5,0 29 16 68 37 W 996,4 47 0,0
18.01.2018 14:00:00 4,7 2,4 4,4 25 14 86 47 WNW 994,3 10 0,1
18.01.2018 13:00:00 4,6 1,5 4,2 58 31 - - W 990,4 12 0,0
18.01.2018 12:00:00 4,4 3,0 4,3 65 35 108 58 W 983,7 4,6 0,0
18.01.2018 11:00:00 6,2 1,6 5,7 68 37 94 51 WSW 982,2 24 0,3
18.01.2018 10:00:00 7,8 5,1 7,1 54 29 - - WSW 982,6 6 0,4
18.01.2018 09:00:00 7,8 5,6 6,7 36 19 58 31 SW 983,6 45 0,0
18.01.2018 08:00:00 5,4 4,4 4,7 32 18 50 27 SSW 985,0 50 0,6
18.01.2018 07:00:00 3,4 2,3 2,9 36 19 - - S 988,0 8 1,1
18.01.2018 06:00:00 2,6 1,8 2,4 29 16 50 27 S 991,5 7 1,4
18.01.2018 05:00:00 3,4 2,0 3,0 25 14 40 21 S 995,7 12 0,3
18.01.2018 04:00:00 3,5 0,8 2,9 22 12 - - S 998,7 20 0,0
18.01.2018 03:00:00 3,4 0,7 2,9 22 12 36 19 SSW 1000,7 21 0,0
18.01.2018 02:00:00 3,1 0,7 2,4 18 10 32 18 SSW 1002,2 17 0,0
18.01.2018 01:00:00 3,4 0,9 2,6 22 12 - - SSW 1003,6 19 0,0
18.01.2018 00:00:00 3,6 0,8 2,8 22 12 36 19 SW 1004,2 21 0,0
17.01.2018 23:00:00 3,7 1,1 2,8 22 12 32 18 SW 1004,4 18 0,0
17.01.2018 22:00:00 3,8 1,0 2,8 18 10 - - SSW 1004,4 20 0,0
17.01.2018 21:00:00 3,7 0,9 2,6 18 10 43 23 SW 1004,1 18 0,0
17.01.2018 20:00:00 3,4 0,8 2,4 22 12 36 19 WSW 1003,9 12 0,1
17.01.2018 19:00:00 2,5 0,7 1,5 18 10 - - SW 1003,7 16 0,4
17.01.2018 18:00:00 3,1 0,1 2,0 18 10 36 19 WSW 1003,0 16 0,1
17.01.2018 17:00:00 2,7 0,6 1,6 18 10 36 19 WSW 1001,9 17 0,9
17.01.2018 16:00:00 2,9 0,9 1,8 18 10 - - WSW 1000,6 19 0,3
17.01.2018 15:00:00 1,1 0,5 0,7 11 6 36 19 SW 999,5 33 2,2
17.01.2018 14:00:00 0,4 0,2 0,1 18 10 32 18 WSW 998,9 7 2,1
17.01.2018 13:00:00 0,7 0,2 0,5 18 10 - - WSW 998,3 4,3 0,3
17.01.2018 12:00:00 2,0 0,7 1,7 25 14 40 21 SW 997,8 12 0,0
17.01.2018 11:00:00 1,8 0,2 1,4 18 10 29 16 SW 997,4 29 0,0
17.01.2018 10:00:00 1,0 0,1 0,4 18 10 - - SW 996,6 26 0,0
17.01.2018 09:00:00 0,7 -0,1 0,3 22 12 32 18 SW 995,5 10 0,5
17.01.2018 08:00:00 0,9 0,0 0,6 11 6 22 12 W 994,4 9 0,4
17.01.2018 07:00:00 0,9 0,2 0,5 14 8 - - WSW 993,0 31 0,6
17.01.2018 06:00:00 1,2 0,2 0,6 11 6 40 21 W 991,9 27 0,3
17.01.2018 05:00:00 1,2 0,2 0,7 22 12 36 19 WSW 991,3 4,2 0,2
17.01.2018 04:00:00 0,9 0,1 0,3 14 8 - - SW 990,9 31 0,1
17.01.2018 03:00:00 0,6 0,2 0,3 14 8 36 19 SSW 990,5 39 0,9
17.01.2018 02:00:00 0,7 0,3 0,2 18 10 36 19 SW 990,9 2,0 2,5
17.01.2018 01:00:00 2,0 0,9 1,6 14 8 - - SW 991,1 4,1 0,9
17.01.2018 00:00:00 2,6 0,4 1,9 22 12 36 19 SSW 991,3 28 0,0
16.01.2018 23:00:00 2,2 -0,1 1,4 18 10 36 19 SSW 991,4 29 0,0
16.01.2018 22:00:00 2,0 0,3 1,2 14 8 - - SSW 991,6 26 0,0
16.01.2018 21:00:00 2,4 -0,1 1,3 18 10 40 21 SSW 991,9 50 0,1
16.01.2018 20:00:00 3,1 0,4 2,1 18 10 29 16 SW 992,3 26 0,3
16.01.2018 19:00:00 3,5 0,4 2,3 18 10 - - SSW 991,9 36 0,0
16.01.2018 18:00:00 3,1 0,0 2,2 22 12 32 18 WSW 992,2 38 0,0
16.01.2018 17:00:00 3,1 -0,2 2,0 18 10 32 18 WSW 992,2 42 0,0
16.01.2018 16:00:00 4,3 -0,3 3,4 25 14 43 23 W 991,8 44 0,0
16.01.2018 15:00:00 5,5 1,1 4,5 25 14 47 25 WSW 991,4 35 0,0
16.01.2018 14:00:00 3,5 1,4 2,7 25 14 50 27 W 991,2 14 0,7
16.01.2018 13:00:00 4,8 1,6 4,3 25 14 43 23 W 990,9 38 0,0
16.01.2018 12:00:00 5,0 2,6 4,9 25 14 43 23 WSW 990,5 45 0,2
16.01.2018 11:00:00 4,2 2,4 3,4 25 14 50 27 WSW 989,9 48 0,7
16.01.2018 10:00:00 4,1 2,8 3,6 7 4 36 19 W 989,2 45 0,0
16.01.2018 09:00:00 5,0 3,2 4,5 25 14 40 21 SSW 988,8 14 0,0
16.01.2018 08:00:00 5,1 3,8 4,4 18 10 25 14 WSW 988,9 19 0,0
16.01.2018 07:00:00 3,6 1,7 2,9 22 12 47 25 W 988,9 9 2,0
16.01.2018 06:00:00 3,7 2,6 2,7 14 8 36 19 WSW 989,2 7 3,3
16.01.2018 05:00:00 3,8 2,5 3,3 18 10 68 37 SW 990,0 32 2,4
16.01.2018 04:00:00 5,1 3,5 4,7 29 16 50 27 WSW 990,5 8 0,7
16.01.2018 03:00:00 5,7 4,0 4,5 18 10 43 23 SW 990,8 28 0,2
16.01.2018 02:00:00 6,2 4,5 5,7 25 14 43 23 WSW 991,1 26 0,4
16.01.2018 01:00:00 6,4 5,1 6,0 22 12 32 18 SW 990,8 14 0,1
16.01.2018 00:00:00 6,4 5,6 6,0 14 8 36 19 SW 989,8 22 0,0
15.01.2018 23:00:00 6,5 5,6 5,9 25 14 50 27 SSW 990,0 22 0,6
15.01.2018 22:00:00 6,0 4,9 5,5 29 16 47 25 SSW 989,7 11 0,3
15.01.2018 21:00:00 5,6 4,5 5,2 29 16 50 27 S 990,2 8 1,0
15.01.2018 20:00:00 5,2 3,9 4,8 32 18 61 33 S 991,3 10 2,4
15.01.2018 19:00:00 5,2 3,9 4,8 29 16 58 31 S 992,9 13 1,8
15.01.2018 18:00:00 5,5 4,2 5,1 29 16 47 25 S 994,6 12 0,2
15.01.2018 17:00:00 5,5 4,2 5,1 32 18 54 29 S 996,4 13 0,5
15.01.2018 16:00:00 5,4 4,1 5,1 32 18 50 27 S 998,1 7 0,5
15.01.2018 15:00:00 5,7 4,2 5,4 29 16 54 29 S 1000,3 10 0,9
15.01.2018 14:00:00 6,5 3,5 6,1 29 16 50 27 S 1001,6 24 0,1
15.01.2018 13:00:00 6,3 2,6 6,0 29 16 47 25 S 1003,8 28 0,0
15.01.2018 12:00:00 5,2 2,4 4,8 25 14 40 21 S 1006,3 17 0,0
15.01.2018 11:00:00 4,6 2,0 4,2 25 14 40 21 S 1008,1 13 0,0
15.01.2018 10:00:00 4,4 1,7 3,9 29 16 43 23 S 1008,9 13 0,0
15.01.2018 09:00:00 3,8 1,3 3,2 18 10 29 16 S 1009,9 14 0,0
15.01.2018 08:00:00 3,3 0,6 2,4 22 12 29 16 S 1010,7 15 0,0
15.01.2018 07:00:00 2,2 -0,4 1,3 18 10 29 16 S 1011,6 15 0,0
15.01.2018 06:00:00 1,7 -0,8 0,1 18 10 25 14 S 1012,6 14 0,0
15.01.2018 05:00:00 0,6 -1,6 -0,4 14 8 18 10 SSE 1013,7 14 0,0
15.01.2018 04:00:00 0,3 -1,9 -0,7 14 8 22 12 SSE 1014,9 14 0,0
15.01.2018 03:00:00 0,4 -2,0 -0,7 14 8 18 10 SSE 1015,8 14 0,0
15.01.2018 02:00:00 0,2 -2,1 -1,0 14 8 22 12 SSE 1016,5 14 0,0
15.01.2018 01:00:00 0,3 -2,3 -0,9 14 8 22 12 SSE 1017,4 17 0,0
15.01.2018 00:00:00 0,3 -2,5 -0,9 14 8 18 10 SSE 1018,2 18 0,0
14.01.2018 23:00:00 0,5 -2,7 -1,1 14 8 18 10 SSE 1019,0 21 0,0
14.01.2018 22:00:00 0,1 -3,1 -1,2 11 6 18 10 ESE 1019,4 19 0,0
14.01.2018 21:00:00 -0,1 -3,4 -1,5 11 6 18 10 SE 1019,9 19 0,0
14.01.2018 20:00:00 0,0 -3,4 -1,7 7 4 14 8 ESE 1020,1 19 0,0
14.01.2018 19:00:00 0,2 -3,1 -1,8 7 4 14 8 ESE 1020,5 18 0,0
14.01.2018 18:00:00 0,8 -2,6 -1,5 11 6 14 8 E 1020,9 16 0,0
14.01.2018 17:00:00 1,5 -2,3 -0,5 7 4 18 10 E 1021,0 18 0,0
14.01.2018 16:00:00 2,7 -1,9 1,9 11 6 22 12 E 1021,3 18 0,0
14.01.2018 15:00:00 3,1 -1,4 3,2 14 8 25 14 ESE 1021,3 20 0,0
14.01.2018 14:00:00 3,4 -1,1 3,5 14 8 29 16 ESE 1021,5 17 0,0
14.01.2018 13:00:00 3,1 -0,9 3,1 14 8 25 14 ESE 1022,0 18 0,0
14.01.2018 12:00:00 2,3 -1,8 2,3 14 8 29 16 E 1022,4 14 0,0
14.01.2018 11:00:00 1,8 -2,2 1,8 18 10 29 16 E 1022,8 14 0,0
14.01.2018 10:00:00 1,6 -2,0 1,4 14 8 25 14 E 1022,9 14 0,0
14.01.2018 09:00:00 1,7 -1,8 1,3 14 8 25 14 E 1022,9 13 0,0
14.01.2018 08:00:00 1,7 -1,4 1,3 11 6 22 12 E 1023,0 12 0,0
14.01.2018 07:00:00 1,5 -1,1 1,2 11 6 22 12 ENE 1023,0 12 0,0
14.01.2018 06:00:00 1,3 -1,0 1,0 14 8 22 12 ENE 1022,8 12 0,0
14.01.2018 05:00:00 1,5 -1,1 1,2 14 8 25 14 ENE 1023,0 14 0,0
14.01.2018 04:00:00 1,6 -1,0 1,3 14 8 25 14 ENE 1023,3 13 0,0
14.01.2018 03:00:00 1,9 -0,4 1,6 11 6 22 12 ENE 1023,4 11 0,0
14.01.2018 02:00:00 2,2 0,1 1,9 11 6 22 12 ENE 1023,4 9 0,0
14.01.2018 01:00:00 2,4 0,5 2,1 14 8 22 12 ENE 1023,7 7 0,0
14.01.2018 00:00:00 3,0 0,9 2,7 11 6 22 12 ENE 1024,1 7 0,0

tt = Température de l'air
td = dewpoint
tt 5cm = Température de l'air 5cm
ff = Vitesse du vent
fx = gusts
dd = Direction du vent
ppp = reduced air pressure
vv = visibility
rr = Quantités de précipitations

stations d'obs. à proximité